Location: Central Falls
(41.8900°N, 71.3929°W)
Time: 11:21:28
(UTC+00:00)

Altair - Pass Details

Date: 13 December 2023
Orbit: 1501 x 1682 km, 47.2° (Epoch: 20 February)

Event Time Altitude Azimuth Distance (km) Brightness Sun altitude
Rises 15:52:19 0° 294° (WNW) 4,780 9.8 24.0°
Reaches altitude 10° 15:55:27 10° 294° (WNW) 3,769 9.3 24.1°
Maximum altitude 16:04:59 88° 209° (SSW) 1,535 8.0 24.5°
Drops below altitude 10° 16:14:13 10° 119° (ESE) 3,654 10.1 24.7°
Sets 16:17:12 0° 119° (ESE) 4,627 10.5 24.7°
